WetterOnline ( https://www.wetteronline.de )

Wetter aktuell Aidlingen

Aktuelles Wetter: Schnarrenberg/Stuttgart (315m)

6-stündlich | Neueste Meldungen
Ortszeit Temperatur Wetter
Do, 21.11. 7:00 2.7° C bedeckt
Do, 21.11. 1:00 2.2° C bedeckt
Mi, 20.11. 19:00 2.3° C bedeckt
Mi, 20.11. 13:00 2.1° C bedeckt
Mi, 20.11. 7:00 -0.0° C Nebel
Mi, 20.11. 1:00 1.4° C bedeckt
Di, 19.11. 19:00 3.5° C bewölkt
Di, 19.11. 13:00 6.3° C bedeckt
Ortszeit Temperatur Wetter
Do, 21.11. 7:00 2.7° C bedeckt
Do, 21.11. 6:50 2.7° C bedeckt
Do, 21.11. 6:40 2.8° C bedeckt
Do, 21.11. 6:30 2.7° C bedeckt
Do, 21.11. 6:20 2.7° C bedeckt
Do, 21.11. 6:10 2.9° C bedeckt
Do, 21.11. 6:00 2.8° C bedeckt
Do, 21.11. 5:30 2.5° C bedeckt
Do, 21.11. 5:00 2.5° C bedeckt
Do, 21.11. 4:30 2.6° C bedeckt
Do, 21.11. 4:00 2.3° C bedeckt
Ortszeit Relative Feuchte Sichtweite
Do, 21.11. 7:00 91% 8 km
Do, 21.11. 1:00 97% 7 km
Mi, 20.11. 19:00 94% 10 km
Mi, 20.11. 13:00 92% 14 km
Mi, 20.11. 7:00 100% 0.4 km
Mi, 20.11. 1:00 96% 9 km
Di, 19.11. 19:00 93% 24 km
Di, 19.11. 13:00 76% 50 km
Ortszeit Relative Feuchte Sichtweite
Do, 21.11. 7:00 91% 8 km
Do, 21.11. 6:50 91% -
Do, 21.11. 6:40 90% -
Do, 21.11. 6:30 90% 9 km
Do, 21.11. 6:20 90% -
Do, 21.11. 6:10 89% -
Do, 21.11. 6:00 91% 12 km
Do, 21.11. 5:30 93% 11 km
Do, 21.11. 5:00 93% 11 km
Do, 21.11. 4:30 92% 13 km
Do, 21.11. 4:00 94% 11 km
Ortszeit Niederschlagsmenge Niederschlagsart
Do, 21.11. 7:00 0.0 l/m2 in 12 Std. -
Do, 21.11. 1:00 0.0 l/m2 in 6 Std. -
Mi, 20.11. 19:00 0.1 l/m2 in 12 Std. -
Mi, 20.11. 13:00 0.1 l/m2 in 6 Std. Schnee, Regen
Mi, 20.11. 7:00 0.0 l/m2 in 12 Std. -
Mi, 20.11. 1:00 0.0 l/m2 in 6 Std. -
Di, 19.11. 19:00 0.1 l/m2 in 12 Std. Regen
Di, 19.11. 13:00 0.1 l/m2 in 6 Std. Sprühregen
Ortszeit Niederschlagsmenge Niederschlagsart
Do, 21.11. 7:00 0.0 l/m2 in 1 Std. -
Do, 21.11. 6:50 keine Meldung -
Do, 21.11. 6:40 keine Meldung -
Do, 21.11. 6:30 0.0 l/m2 in 1 Std. -
Do, 21.11. 6:20 keine Meldung -
Do, 21.11. 6:10 keine Meldung -
Do, 21.11. 6:00 0.0 l/m2 in 1 Std. -
Do, 21.11. 5:30 0.0 l/m2 in 1 Std. -
Do, 21.11. 5:00 0.0 l/m2 in 1 Std. -
Do, 21.11. 4:30 0.0 l/m2 in 1 Std. -
Do, 21.11. 4:00 0.0 l/m2 in 1 Std. -
Ortszeit Stärke Spitze Richtung
km/h Bft. km/h Grad Sektor
Do, 21.11. 7:00 0 0 7 - -
Do, 21.11. 1:00 0 0 7 - -
Mi, 20.11. 19:00 6 1 9 300° NW
Mi, 20.11. 13:00 7 2 11 340° N
Mi, 20.11. 7:00 7 2 11 20° N
Mi, 20.11. 1:00 4 1 14 20° N
Di, 19.11. 19:00 7 2 26 300° NW
Di, 19.11. 13:00 2 1 13 120° SO
Ortszeit Stärke Spitze Richtung
km/h Bft. km/h Grad Sektor
Do, 21.11. 7:00 0 0 4 - -
Do, 21.11. 6:50 0 0 - 360° N
Do, 21.11. 6:40 4 1 - 130° SO
Do, 21.11. 6:30 4 1 4 140° SO
Do, 21.11. 6:20 4 1 - 140° SO
Do, 21.11. 6:10 4 1 - 110° O
Do, 21.11. 6:00 4 1 4 90° O
Do, 21.11. 5:30 4 1 4 150° SO
Do, 21.11. 5:00 4 1 7 110° O
Do, 21.11. 4:30 4 1 7 130° SO
Do, 21.11. 4:00 4 1 7 150° SO
Ortszeit Untergrenze Bedeckung Gattung
total tief tief mittel hoch
Do, 21.11. 7:00 2100 m 8/8 8/8 - - -
Do, 21.11. 1:00 750 m 8/8 8/8 - - -
Mi, 20.11. 19:00 990 m 8/8 8/8 - - -
Mi, 20.11. 13:00 150 m 8/8 8/8 - - -
Mi, 20.11. 7:00 <30 m 8/8 0/8 - - -
Mi, 20.11. 1:00 60 m 8/8 8/8 - - -
Di, 19.11. 19:00 1230 m 7/8 7/8 - - -
Di, 19.11. 13:00 660 m 8/8 8/8 - - -
Ortszeit Bedeckungsgrad in Achtel und Wolkenuntergrenze
Do, 21.11. 7:00 8(2100m) 8(4500m)
Do, 21.11. 6:50 8(2100m) 8(4500m)
Do, 21.11. 6:40 8(2100m) 8(4500m)
Do, 21.11. 6:30 8(2400m)
Do, 21.11. 6:20 8(2400m)
Do, 21.11. 6:10 8(2400m) 8(5100m)
Do, 21.11. 6:00 8(2700m) 8(5400m)
Do, 21.11. 5:30 8(2700m)
Do, 21.11. 5:00 8(3000m)
Do, 21.11. 4:30 8(3000m)
Do, 21.11. 4:00 8(3000m)
Ortszeit Luftdruck NN (hPa) Tendenz (hPa in 3 Std.)
Do, 21.11. 7:00 1012 - 0,1
Do, 21.11. 1:00 1013 - 1,4
Mi, 20.11. 19:00 1015 - 0,5
Mi, 20.11. 13:00 1017 - 1,5
Mi, 20.11. 7:00 1019 - 0,6
Mi, 20.11. 1:00 1020 - 0,1
Di, 19.11. 19:00 1020 + 1,0
Di, 19.11. 13:00 1018 - 0,1
Ortszeit Luftdruck NN (hPa) Tendenz (hPa in 3 Std.)
Do, 21.11. 7:00 1012 - 0,1
Do, 21.11. 6:50 1012 keine Meldung
Do, 21.11. 6:40 1012 keine Meldung
Do, 21.11. 6:30 1012 - 0,4
Do, 21.11. 6:20 1012 keine Meldung
Do, 21.11. 6:10 1012 keine Meldung
Do, 21.11. 6:00 1012 - 0,6
Do, 21.11. 5:30 1012 - 0,9
Do, 21.11. 5:00 1012 - 0,9
Do, 21.11. 4:30 1012 - 1,0
Do, 21.11. 4:00 1012 - 1,1
Ortszeit Schneehöhe (cm)
Do, 21.11. 7:00 0
Do, 21.11. 1:00 0
Mi, 20.11. 19:00 0
Mi, 20.11. 13:00 0
Mi, 20.11. 7:00 0
Mi, 20.11. 1:00 0
Di, 19.11. 19:00 0
Di, 19.11. 13:00 0
Ortszeit Schneehöhe (cm)
Do, 21.11. 7:00 0
Do, 21.11. 6:50 0
Do, 21.11. 6:40 0
Do, 21.11. 6:30 0
Do, 21.11. 6:20 0
Do, 21.11. 6:10 0
Do, 21.11. 6:00 0
Do, 21.11. 5:30 0
Do, 21.11. 5:00 0
Do, 21.11. 4:30 0
Do, 21.11. 4:00 0
Link zu dieser Seite / Seite empfehlen

Das Wetter in ...